CZ-6A DEB, 54637

Orbit data source: Space-Track

CZ-6A DEB, 54637 is space debris in SSO originally from a launch on Fri, 11 Nov 2022 UTC launched from the Taiyaun Space Center, China (TSC). Debris objects in space refer to the collection of defunct objects orbiting the Earth. Examples of debris include non-operational satellites, rocket bodies, and fragments generated from explosions, collisions, or faulty payload assembly.

Loading next visibility...
Identifier
54637, 2022-151PP
Orbit
SSO
Country
Flag of CNCN / PRC
Related business
Manufacturer
SAST
Mission
Spacecraft
Bus & Motor
Unknown
Mass
Unknown
Launch date (UTC)
2022-11-11 (4 years ago)
Launch vehicle
Unknown
Launch site
Taiyaun Space Center, China (TSC)
Object type
Payload
Rocket body
Debris
Shape & HBR
Unknown shape, 0.1 m
Radar Cross Section
Medium (>0.1 m² and <1 m²)

Expand to show TLE details & history
Last TLE update: 3 days ago

TLE from 3 days ago
0 CZ-6A DEB
1 54637U 22151PP  26170.94355987  .00002226  00000-0  10601-2 0  9994
2 54637  98.8376 176.8888 0059658 336.7518  23.0962 14.19427115184426
Epoch: 2026-06-19T22:38Z
TLE epoch observation values (Epoch: 2026-06-19T22:38:43.572Z)
Latitude
0.00002°
Longitude
-70.95803°
Altitude
790.692 km
Speed
7.479 km/s
True Right ascension
11h 47m 33s
True Declination
0° 00' 00"
Sunlit
Object was in daylight at epoch
Visualization orbit readout
Latitude
Unknown
Longitude
Unknown
Altitude
Unknown
Speed
Unknown
Apparent Right ascension
Unknown
Apparent Declination
Unknown
Sunlit
N/A
Visualization observer readout
Local Sidereal Time
21:56:16
Azimuth
Unknown
Elevation
Unknown
Doppler factor
Unknown
Orbital elements
Apogee altitude
867.426 km
Perigee altitude
781.487 km
Semi-major axis
7,202.593 km
Eccentricity
0.00597
Inclination
98.8376°
RAAN
176.8888°
Arg. of periapsis
336.7518°
True anomaly
23.36622°
Mean anomaly
23.0962°
Eccentric anomaly
23.23103°
Mean motion
3.55067 °/min
Orbital period
101.39 mins
BSTAR
0.0010601
Loading maneuver chart data...
Computing Atmospheric mass density...
Loading historical data...
Loading historical data...
Loading historical data...
Loading historical data...
Loading historical data...
Loading historical data...
Loading historical data...

Documentation

Showing up to 5 results
|